Date String (YYYY-MM-DD hh:mm:ss) UTC,Instrument flags,Ambient pressure (hPa),Sample flow (lpm),Bypass flow (lpm),Sample temperature (°C),Ambient temperature (°C),ASC tube jacket temperature (°C),LED temperature (°C),Box temperature (°C),Sample RH (%),Span deviation,Mass concentration (μg/m³),Mass concentration (μg/m³),Mass concentration (μg/m³)
DateTimeUTC,F1_M11,P_M11,Q1_M11,Q2_M11,T1_M11,T2_M11,T3_M11,T4_M11,T5_M11,U1_M11,ZSPAN_M11,X0_M11,X2_M11,X1_M11
2021-12-22 18:00:00,,0822.2,4.99,0.00,26.6,25.9,00.0,35.4,28.4,04.3,0000.0,0012.31,0001.96,0000.62
2021-12-22 18:01:00,,0822.2,5.02,0.00,26.6,25.9,00.0,35.4,28.4,04.3,0000.0,0012.36,0002.02,0000.63
2021-12-22 18:02:00,,0822.2,4.98,0.00,26.6,25.9,00.0,35.4,28.5,04.4,0000.0,0012.18,0002.01,0000.64
2021-12-22 18:03:00,,0822.1,5.00,0.00,26.6,25.9,00.0,35.4,28.5,04.5,0000.0,0011.80,0002.05,0000.64
2021-12-22 18:04:00,,0822.2,5.00,0.00,26.7,25.9,00.0,35.5,28.5,04.4,0000.0,0011.28,0002.02,0000.64
2021-12-22 18:05:00,,0822.0,5.00,0.00,26.7,25.9,00.0,35.5,28.5,04.1,0000.0,0009.62,0001.90,0000.62
2021-12-22 18:06:00,,0822.1,4.99,0.00,26.7,25.9,00.0,35.5,28.5,02.8,0000.0,0008.28,0001.75,0000.61
2021-12-22 18:07:00,,0822.1,5.00,0.00,26.7,25.9,00.0,35.5,28.5,02.8,0000.0,0008.74,0001.70,0000.60
2021-12-22 18:08:00,,0821.9,5.01,0.00,26.7,25.9,00.0,35.5,28.5,02.1,0000.0,0008.64,0001.63,0000.58
2021-12-22 18:09:00,,0822.0,5.01,0.00,26.7,25.9,00.0,35.5,28.5,01.9,0000.0,0008.36,0001.53,0000.57
2021-12-22 18:10:00,,0821.9,4.98,0.00,26.7,25.9,00.0,35.6,28.5,01.9,0000.0,0008.21,0001.43,0000.55
2021-12-22 18:11:00,,0821.8,5.02,0.00,26.7,25.9,00.0,35.6,28.5,01.8,0000.0,0007.88,0001.29,0000.52
2021-12-22 18:12:00,,0821.7,4.98,0.00,26.7,25.9,00.0,35.6,28.5,01.7,0000.0,0007.64,0001.17,0000.51
2021-12-22 18:13:00,,0821.6,5.00,0.00,26.7,25.8,00.0,35.6,28.5,01.7,0000.0,0007.97,0001.10,0000.49
2021-12-22 18:14:00,,0821.7,5.01,0.00,26.7,25.8,00.0,35.6,28.4,01.6,0000.0,0007.01,0000.92,0000.47
2021-12-22 18:15:00,,0821.7,4.99,0.00,26.7,25.8,00.0,35.6,28.4,01.6,0000.0,0006.16,0000.79,0000.45
2021-12-22 18:16:00,,0821.7,5.00,0.00,26.7,25.7,00.0,35.6,28.4,01.6,0000.0,0004.09,0000.67,0000.42
2021-12-22 18:17:00,,0821.6,4.99,0.00,26.7,25.7,00.0,35.6,28.4,01.6,0000.0,0003.78,0000.58,0000.41
2021-12-22 18:18:00,,0821.6,5.00,0.00,26.7,25.7,00.0,35.6,28.4,01.5,0000.0,0002.61,0000.54,0000.40
2021-12-22 18:19:00,,0821.5,5.01,0.00,26.7,25.6,00.0,35.6,28.4,01.6,0000.0,0002.18,0000.53,0000.39
2021-12-22 18:20:00,,0821.5,5.01,0.00,26.7,25.6,00.0,35.6,28.4,01.7,0000.0,0002.16,0000.53,0000.39
2021-12-22 18:21:00,,0821.5,4.99,0.00,26.7,25.6,00.0,35.6,28.4,01.7,0000.0,0003.20,0000.52,0000.40
2021-12-22 18:22:00,,0821.4,5.01,0.00,26.7,25.6,00.0,35.6,28.3,01.7,0000.0,0003.42,0000.51,0000.40
2021-12-22 18:23:00,,0821.4,5.01,0.00,26.7,25.6,00.0,35.6,28.3,01.6,0000.0,0003.31,0000.50,0000.39
2021-12-22 18:24:00,,0821.4,5.00,0.00,26.7,25.6,00.0,35.6,28.4,01.7,0000.0,0002.60,0000.51,0000.40
2021-12-22 18:25:00,,0821.4,5.00,0.00,26.7,25.6,00.0,35.6,28.3,01.7,0000.0,0002.18,0000.53,0000.41
2021-12-22 18:26:00,,0821.3,5.00,0.00,26.7,25.6,00.0,35.6,28.4,01.6,0000.0,0002.39,0000.54,0000.41
2021-12-22 18:27:00,,0821.4,5.00,0.00,26.7,25.5,00.0,35.6,28.3,01.6,0000.0,0002.67,0000.55,0000.42
2021-12-22 18:28:00,,0821.3,4.99,0.00,26.7,25.6,00.0,35.6,28.3,01.7,0000.0,0002.70,0000.54,0000.41
2021-12-22 18:29:00,,0821.3,4.98,0.00,26.7,25.6,00.0,35.6,28.3,01.6,0000.0,0002.68,0000.54,0000.41
2021-12-22 18:30:00,,0821.3,5.01,0.00,26.7,25.6,00.0,35.6,28.3,01.6,0000.0,0003.75,0000.54,0000.42
2021-12-22 18:31:00,,0821.2,5.00,0.00,26.7,25.6,00.0,35.6,28.3,01.6,0000.0,0003.89,0000.53,0000.41
2021-12-22 18:32:00,,0821.1,4.99,0.00,26.6,25.5,00.0,35.6,28.3,01.6,0000.0,0002.94,0000.54,0000.42
2021-12-22 18:33:00,,0821.1,5.01,0.00,26.6,25.5,00.0,35.6,28.3,01.5,0000.0,0002.58,0000.54,0000.42
2021-12-22 18:34:00,,0821.2,5.00,0.00,26.6,25.5,00.0,35.6,28.3,01.6,0000.0,0002.57,0000.53,0000.41
2021-12-22 18:35:00,,0821.1,4.99,0.00,26.6,25.5,00.0,35.6,28.3,01.6,0000.0,0002.50,0000.52,0000.41
2021-12-22 18:36:00,,0821.1,5.01,0.00,26.6,25.5,00.0,35.6,28.3,01.6,0000.0,0002.46,0000.52,0000.40
2021-12-22 18:37:00,,0821.1,4.99,0.00,26.6,25.5,00.0,35.6,28.2,01.5,0000.0,0002.25,0000.51,0000.41
2021-12-22 18:38:00,,0821.1,5.01,0.00,26.6,25.5,00.0,35.6,28.3,01.5,0000.0,0002.48,0000.49,0000.41
2021-12-22 18:39:00,,0820.9,4.99,0.00,26.6,25.5,00.0,35.6,28.2,01.5,0000.0,0003.04,0000.49,0000.42
2021-12-22 18:40:00,,0821.0,5.00,0.00,26.6,25.5,00.0,35.6,28.2,01.4,0000.0,0003.05,0000.50,0000.42
2021-12-22 18:41:00,,0821.0,5.01,0.00,26.6,25.5,00.0,35.6,28.2,01.4,0000.0,0001.94,0000.50,0000.42
2021-12-22 18:42:00,,0821.0,4.99,0.00,26.6,25.4,00.0,35.6,28.2,01.5,0000.0,0001.86,0000.50,0000.42
2021-12-22 18:43:00,,0820.9,5.01,0.00,26.6,25.4,00.0,35.6,28.2,01.5,0000.0,0001.85,0000.49,0000.41
2021-12-22 18:44:00,,0820.9,5.00,0.00,26.6,25.4,00.0,35.6,28.2,01.5,0000.0,0001.85,0000.50,0000.41
2021-12-22 18:45:00,,0820.9,4.99,0.00,26.5,25.4,00.0,35.6,28.2,01.4,0000.0,0001.90,0000.52,0000.42
2021-12-22 18:46:00,,0821.0,5.01,0.00,26.5,25.5,00.0,35.5,28.2,01.5,0000.0,0001.94,0000.54,0000.42
2021-12-22 18:47:00,,0820.9,4.99,0.00,26.5,25.4,00.0,35.5,28.2,01.5,0000.0,0001.94,0000.52,0000.42
2021-12-22 18:48:00,,0820.9,5.01,0.00,26.5,25.4,00.0,35.5,28.2,01.5,0000.0,0001.90,0000.50,0000.41
2021-12-22 18:49:00,,0820.9,4.99,0.00,26.5,25.3,00.0,35.5,28.2,01.5,0000.0,0001.37,0000.52,0000.40
2021-12-22 18:50:00,,0820.9,4.99,0.00,26.5,25.3,00.0,35.5,28.2,01.5,0000.0,0000.88,0000.52,0000.40
2021-12-22 18:51:00,,0820.9,5.01,0.00,26.5,25.3,00.0,35.5,28.2,01.5,0000.0,0000.88,0000.52,0000.40
2021-12-22 18:52:00,,0820.9,5.00,0.00,26.5,25.3,00.0,35.5,28.2,01.5,0000.0,0000.84,0000.51,0000.41
2021-12-22 18:53:00,,0820.9,5.00,0.00,26.5,25.3,00.0,35.5,28.1,01.6,0000.0,0000.89,0000.53,0000.42
2021-12-22 18:54:00,,0820.9,4.98,0.00,26.5,25.3,00.0,35.5,28.1,01.5,0000.0,0001.00,0000.55,0000.42
2021-12-22 18:55:00,,0821.0,5.02,0.00,26.5,25.3,00.0,35.5,28.2,01.6,0000.0,0001.00,0000.55,0000.42
2021-12-22 18:56:00,,0820.9,4.98,0.00,26.5,25.3,00.0,35.5,28.2,01.6,0000.0,0000.96,0000.54,0000.42
2021-12-22 18:57:00,,0820.9,5.02,0.00,26.5,25.3,00.0,35.5,28.2,01.5,0000.0,0000.89,0000.51,0000.42
2021-12-22 18:58:00,,0820.9,4.99,0.00,26.5,25.3,00.0,35.5,28.2,01.5,0000.0,0000.80,0000.50,0000.43
2021-12-22 18:59:00,,0820.9,5.01,0.00,26.5,25.4,00.0,35.5,28.2,01.5,0000.0,0000.80,0000.51,0000.43
